AAL546 KEWR-KORD

Flight info

Callsign AAL546
Flight time N/A
Altitude 36000
Route NEWEL J60 DJB NOLNN Q62 WATSN WATSN4
Aircraft A21N/M-SDE2E3FGHIRWXY/LB1

Departure

Time 2026-05-08 00:51
Airport Newark Liberty International Airport (KEWR)

Arrival

Time N/A
Airport Chicago O'Hare International Airport (KORD)
Time Latitude Longitude Altitude Speed Heading
2026-05-08 00:20 40.69382 -74.17305 20 ft 0 kts 63°
2026-05-08 00:40 40.69378 -74.17317 20 ft 2 kts 48°
2026-05-08 00:40 40.69369 -74.17335 22 ft 2 kts 27°
2026-05-08 00:41 40.69358 -74.17349 22 ft 2 kts 12°
2026-05-08 00:41 40.69350 -74.17344 23 ft 2 kts 353°
2026-05-08 00:41 40.69336 -74.17350 20 ft 2 kts 68°
2026-05-08 00:41 40.69329 -74.17371 22 ft 3 kts 90°
2026-05-08 00:42 40.69330 -74.17388 20 ft 0 kts 103°
2026-05-08 00:45 40.69325 -74.17359 21 ft 7 kts 103°
2026-05-08 00:45 40.69295 -74.17278 20 ft 13 kts 123°
2026-05-08 00:46 40.69236 -74.17148 20 ft 19 kts 117°
2026-05-08 00:46 40.69161 -74.17068 19 ft 9 kts 191°
2026-05-08 00:46 40.69090 -74.17120 19 ft 17 kts 206°
2026-05-08 00:46 40.68960 -74.17206 19 ft 24 kts 207°
2026-05-08 00:47 40.68798 -74.17312 20 ft 28 kts 207°
2026-05-08 00:47 40.68609 -74.17428 21 ft 30 kts 205°
2026-05-08 00:47 40.68416 -74.17550 20 ft 32 kts 206°
2026-05-08 00:47 40.68229 -74.17670 19 ft 9 kts 205°
2026-05-08 00:48 40.68217 -74.17665 19 ft 4 kts 158°
2026-05-08 00:48 40.68215 -74.17652 19 ft 0 kts 108°
2026-05-08 00:49 40.68206 -74.17616 19 ft 9 kts 109°
2026-05-08 00:49 40.68214 -74.17519 19 ft 9 kts 42°
2026-05-08 00:49 40.68270 -74.17481 20 ft 2 kts 26°
2026-05-08 00:50 40.68410 -74.17392 21 ft 60 kts 25°
2026-05-08 00:50 40.69018 -74.17008 20 ft 130 kts 26°
2026-05-08 00:50 40.69982 -74.16393 174 ft 169 kts 24°
2026-05-08 00:51 40.71062 -74.15632 757 ft 178 kts 38°
2026-05-08 00:51 40.71907 -74.14355 1377 ft 200 kts 58°
2026-05-08 00:51 40.72742 -74.12797 2073 ft 216 kts 39°
2026-05-08 00:51 40.74102 -74.11971 2966 ft 224 kts
2026-05-08 00:52 40.75698 -74.12223 3640 ft 244 kts 335°
2026-05-08 00:52 40.77083 -74.13606 4384 ft 257 kts 305°
2026-05-08 00:52 40.77768 -74.15733 5364 ft 258 kts 276°
2026-05-08 00:52 40.77566 -74.18076 6442 ft 256 kts 247°
2026-05-08 00:53 40.76798 -74.20168 7426 ft 258 kts 243°
2026-05-08 00:53 40.75945 -74.22308 8407 ft 261 kts 243°
2026-05-08 00:53 40.75092 -74.24400 9387 ft 264 kts 243°
2026-05-08 00:53 40.74178 -74.26603 9856 ft 286 kts 243°
2026-05-08 00:54 40.73172 -74.29028 9997 ft 316 kts 243°
2026-05-08 00:54 40.72072 -74.31703 10028 ft 347 kts 243°
2026-05-08 00:54 40.70885 -74.34615 10027 ft 374 kts 243°
2026-05-08 00:54 40.69674 -74.37591 10024 ft 360 kts 243°
2026-05-08 00:55 40.68503 -74.40465 10024 ft 353 kts 243°
2026-05-08 00:55 40.67350 -74.43288 10024 ft 347 kts 243°
2026-05-08 00:55 40.66216 -74.46059 10021 ft 341 kts 243°
2026-05-08 00:55 40.65099 -74.48786 10026 ft 335 kts 243°
2026-05-08 00:56 40.64017 -74.51438 10265 ft 322 kts 245°
2026-05-08 00:56 40.63422 -74.54195 10550 ft 307 kts 268°
2026-05-08 00:56 40.63741 -74.56895 10838 ft 296 kts 290°
2026-05-08 00:56 40.64896 -74.59086 11134 ft 293 kts 315°
2026-05-08 00:57 40.66573 -74.60569 11438 ft 286 kts 323°
2026-05-08 00:57 40.68196 -74.62040 11745 ft 288 kts 315°
2026-05-08 00:57 40.69657 -74.63936 11981 ft 304 kts 305°
2026-05-08 00:57 40.70930 -74.66225 12391 ft 314 kts 298°
2026-05-08 00:58 40.72063 -74.68683 13220 ft 312 kts 295°
2026-05-08 00:58 40.73130 -74.71182 13955 ft 315 kts 294°
2026-05-08 00:58 40.74189 -74.73734 14590 ft 319 kts 293°
2026-05-08 00:58 40.75256 -74.76316 15216 ft 322 kts 293°
2026-05-08 00:59 40.76337 -74.78917 15882 ft 325 kts 292°
2026-05-08 00:59 40.77419 -74.81513 16485 ft 329 kts 292°
2026-05-08 00:59 40.78528 -74.84169 17119 ft 332 kts 292°
2026-05-08 00:59 40.79648 -74.86846 17768 ft 335 kts 292°
2026-05-08 01:00 40.80779 -74.89553 18350 ft 338 kts 291°
2026-05-08 01:00 40.81915 -74.92278 18944 ft 339 kts 291°
2026-05-08 01:00 40.83054 -74.95006 19561 ft 340 kts 291°
2026-05-08 01:00 40.83825 -74.96859 19942 ft 341 kts 291°
2026-05-08 01:01 40.84969 -74.99611 20532 ft 342 kts 291°
2026-05-08 01:01 40.86116 -75.02375 21099 ft 344 kts 291°
2026-05-08 01:01 40.87267 -75.05147 21691 ft 345 kts 291°
2026-05-08 01:01 40.88422 -75.07931 22256 ft 346 kts 290°
2026-05-08 01:02 40.89567 -75.10695 22769 ft 348 kts 290°
2026-05-08 01:02 40.90626 -75.13551 23323 ft 343 kts 283°
2026-05-08 01:02 40.91214 -75.16568 23757 ft 337 kts 272°
2026-05-08 01:02 40.91301 -75.19641 24214 ft 333 kts 263°
2026-05-08 01:03 40.90910 -75.22646 24624 ft 332 kts 253°
2026-05-08 01:03 40.90214 -75.25560 25031 ft 333 kts 252°
2026-05-08 01:03 40.89516 -75.28489 25439 ft 335 kts 252°
2026-05-08 01:03 40.88824 -75.31431 25849 ft 336 kts 253°
2026-05-08 01:04 40.88130 -75.34389 26226 ft 337 kts 253°
2026-05-08 01:04 40.87434 -75.37352 26615 ft 338 kts 253°
2026-05-08 01:04 40.86735 -75.40326 26980 ft 340 kts 253°
2026-05-08 01:04 40.86029 -75.43316 27322 ft 342 kts 253°
2026-05-08 01:05 40.85320 -75.46315 27658 ft 344 kts 253°
2026-05-08 01:05 40.84605 -75.49338 28002 ft 345 kts 253°
2026-05-08 01:05 40.83889 -75.52361 28331 ft 346 kts 253°
2026-05-08 01:05 40.83167 -75.55405 28630 ft 348 kts 253°
2026-05-08 01:06 40.82443 -75.58456 28955 ft 349 kts 253°
2026-05-08 01:06 40.81715 -75.61515 29248 ft 350 kts 253°
2026-05-08 01:06 40.80984 -75.64586 29528 ft 352 kts 253°
2026-05-08 01:06 40.80248 -75.67673 29803 ft 353 kts 253°
2026-05-08 01:07 40.79503 -75.70791 29871 ft 360 kts 253°
2026-05-08 01:07 40.77980 -75.77160 29884 ft 373 kts 253°
2026-05-08 01:08 40.76393 -75.83778 29886 ft 382 kts 253°
2026-05-08 01:08 40.74769 -75.90526 29887 ft 388 kts 253°
2026-05-08 01:09 40.73128 -75.97326 29885 ft 391 kts 253°
2026-05-08 01:09 40.71470 -76.04171 29871 ft 392 kts 253°
2026-05-08 01:10 40.69805 -76.11030 29877 ft 393 kts 253°
2026-05-08 01:10 40.68137 -76.17890 29883 ft 393 kts 254°
2026-05-08 01:11 40.67273 -76.24517 29886 ft 394 kts 266°
2026-05-08 01:11 40.67799 -76.31726 29898 ft 399 kts 277°
2026-05-08 01:12 40.68885 -76.38884 29890 ft 398 kts 276°
2026-05-08 01:12 40.69949 -76.46059 29893 ft 398 kts 276°
2026-05-08 01:13 40.71011 -76.53234 29887 ft 398 kts 276°
2026-05-08 01:13 40.72068 -76.60397 29882 ft 398 kts 276°
2026-05-08 01:14 40.73114 -76.67509 29880 ft 398 kts 276°
2026-05-08 01:14 40.74161 -76.74667 29879 ft 397 kts 276°
2026-05-08 01:15 40.75205 -76.81836 29879 ft 397 kts 276°
2026-05-08 01:15 40.76240 -76.88983 29883 ft 397 kts 276°
2026-05-08 01:16 40.77210 -76.95704 29880 ft 396 kts 276°
2026-05-08 01:16 40.78236 -77.02848 29878 ft 396 kts 276°
2026-05-08 01:17 40.79258 -77.09995 29879 ft 396 kts 276°
2026-05-08 01:17 40.80267 -77.17083 29886 ft 395 kts 276°
2026-05-08 01:18 40.81277 -77.24216 29877 ft 395 kts 276°
2026-05-08 01:18 40.82268 -77.31262 29891 ft 394 kts 276°
2026-05-08 01:19 40.83267 -77.38381 29893 ft 394 kts 276°
2026-05-08 01:19 40.84263 -77.45496 29892 ft 394 kts 276°
2026-05-08 01:20 40.85252 -77.52606 29893 ft 393 kts 276°
2026-05-08 01:20 40.86235 -77.59706 29890 ft 393 kts 276°
2026-05-08 01:21 40.87213 -77.66802 29892 ft 392 kts 276°
2026-05-08 01:21 40.88184 -77.73878 29887 ft 391 kts 276°
2026-05-08 01:22 40.89142 -77.80901 29888 ft 391 kts 276°
2026-05-08 01:22 40.90102 -77.87968 29892 ft 390 kts 276°
2026-05-08 01:23 40.91055 -77.95019 29887 ft 389 kts 276°
2026-05-08 01:23 40.91992 -78.02048 29894 ft 388 kts 276°
2026-05-08 01:24 40.92860 -78.09082 29906 ft 387 kts 275°
2026-05-08 01:24 40.93718 -78.16101 29923 ft 387 kts 276°
2026-05-08 01:25 40.94578 -78.23117 29922 ft 386 kts 276°
2026-05-08 01:25 40.95436 -78.30123 29921 ft 385 kts 276°
2026-05-08 01:26 40.96288 -78.37116 29915 ft 385 kts 276°
2026-05-08 01:26 40.97133 -78.44100 29918 ft 384 kts 276°
2026-05-08 01:27 40.97971 -78.51073 29918 ft 383 kts 276°
2026-05-08 01:27 40.98805 -78.58034 29924 ft 382 kts 276°
2026-05-08 01:28 40.99628 -78.64924 29925 ft 381 kts 276°
2026-05-08 01:28 41.00448 -78.71844 29934 ft 380 kts 275°
2026-05-08 01:29 41.01252 -78.78664 29939 ft 379 kts 276°
2026-05-08 01:29 41.02061 -78.85557 29942 ft 378 kts 275°
2026-05-08 01:30 41.02864 -78.92445 29946 ft 378 kts 275°
2026-05-08 01:30 41.03662 -78.99312 29941 ft 377 kts 275°
2026-05-08 01:31 41.04454 -79.06176 29942 ft 376 kts 275°
2026-05-08 01:31 41.05240 -79.13025 29947 ft 376 kts 275°
2026-05-08 01:32 41.06023 -79.19868 29951 ft 376 kts 275°
2026-05-08 01:32 41.06800 -79.26720 29954 ft 375 kts 275°
2026-05-08 01:33 41.07572 -79.33554 29959 ft 375 kts 275°
2026-05-08 01:33 41.08342 -79.40398 29966 ft 375 kts 275°
2026-05-08 01:34 41.09103 -79.47196 29965 ft 375 kts 275°
2026-05-08 01:34 41.09863 -79.54038 29963 ft 375 kts 275°
2026-05-08 01:35 41.10620 -79.60890 29973 ft 375 kts 275°
2026-05-08 01:35 41.11373 -79.67748 29978 ft 376 kts 275°
2026-05-08 01:36 41.12117 -79.74563 29978 ft 376 kts 275°
2026-05-08 01:36 41.12864 -79.81424 29978 ft 376 kts 275°
2026-05-08 01:37 41.13607 -79.88301 29979 ft 377 kts 275°
2026-05-08 01:37 41.14345 -79.95179 29988 ft 377 kts 275°
2026-05-08 01:38 41.15081 -80.02075 29991 ft 378 kts 275°
2026-05-08 01:38 41.15814 -80.08983 29994 ft 378 kts 275°
2026-05-08 01:39 41.16540 -80.15847 30001 ft 378 kts 275°
2026-05-08 01:39 41.17267 -80.22773 29997 ft 379 kts 275°
2026-05-08 01:40 41.17990 -80.29716 29996 ft 380 kts 275°
2026-05-08 01:40 41.18709 -80.36662 29996 ft 380 kts 275°
2026-05-08 01:41 41.19426 -80.43635 29993 ft 381 kts 275°
2026-05-08 01:41 41.20140 -80.50618 29985 ft 382 kts 275°
2026-05-08 01:42 41.20852 -80.57618 29982 ft 382 kts 275°
2026-05-08 01:42 41.21551 -80.64533 29980 ft 383 kts 275°
2026-05-08 01:43 41.22256 -80.71548 29980 ft 384 kts 275°
2026-05-08 01:43 41.22959 -80.78586 29982 ft 384 kts 275°
2026-05-08 01:44 41.23658 -80.85630 29979 ft 385 kts 275°
2026-05-08 01:44 41.24354 -80.92690 29980 ft 386 kts 275°
2026-05-08 01:45 41.25046 -80.99759 29988 ft 386 kts 275°
2026-05-08 01:45 41.25737 -81.06860 29991 ft 387 kts 275°
2026-05-08 01:46 41.26424 -81.13958 30000 ft 388 kts 275°
2026-05-08 01:46 41.27107 -81.21074 30000 ft 389 kts 275°
2026-05-08 01:47 41.27787 -81.28200 30001 ft 389 kts 275°
2026-05-08 01:47 41.28465 -81.35347 29998 ft 390 kts 275°
2026-05-08 01:48 41.29470 -81.46048 29993 ft 391 kts 275°
2026-05-08 01:48 41.30140 -81.53227 29986 ft 391 kts 275°
2026-05-08 01:49 41.30806 -81.60419 29968 ft 392 kts 275°
2026-05-08 01:49 41.31466 -81.67626 29968 ft 392 kts 275°
2026-05-08 01:50 41.32013 -81.73616 29963 ft 393 kts 275°
2026-05-08 01:50 41.32667 -81.80837 29960 ft 393 kts 275°
2026-05-08 01:51 41.33318 -81.88070 29962 ft 394 kts 275°
2026-05-08 01:51 41.33966 -81.95313 29963 ft 394 kts 275°
2026-05-08 01:52 41.34609 -82.02562 29981 ft 395 kts 275°
2026-05-08 01:52 41.35248 -82.09821 29980 ft 395 kts 275°
2026-05-08 01:53 41.35610 -82.17115 29980 ft 395 kts 271°
2026-05-08 01:53 41.35484 -82.24422 29978 ft 396 kts 267°
2026-05-08 01:54 41.35181 -82.31735 29981 ft 396 kts 268°
2026-05-08 01:54 41.34884 -82.39062 29980 ft 396 kts 268°
2026-05-08 01:55 41.34584 -82.46343 29983 ft 397 kts 268°
2026-05-08 01:55 41.34274 -82.53681 29977 ft 397 kts 268°
2026-05-08 01:56 41.33960 -82.61028 29979 ft 398 kts 268°
2026-05-08 01:56 41.33641 -82.68371 29979 ft 398 kts 268°
2026-05-08 01:57 41.33317 -82.75729 29982 ft 398 kts 268°
2026-05-08 01:57 41.32987 -82.83102 29983 ft 399 kts 268°
2026-05-08 01:58 41.32654 -82.90466 29980 ft 399 kts 268°
2026-05-08 01:58 41.32315 -82.97830 29982 ft 399 kts 268°
2026-05-08 01:59 41.31972 -83.05194 29980 ft 399 kts 268°
2026-05-08 01:59 41.31624 -83.12555 29979 ft 399 kts 268°
2026-05-08 02:00 41.31271 -83.19914 29974 ft 399 kts 268°
2026-05-08 02:00 41.30914 -83.27276 29974 ft 399 kts 268°
2026-05-08 02:01 41.30552 -83.34636 29993 ft 399 kts 268°
2026-05-08 02:01 41.30185 -83.41999 29994 ft 399 kts 268°
2026-05-08 02:02 41.29816 -83.49302 29974 ft 398 kts 268°
2026-05-08 02:02 41.29438 -83.56705 29978 ft 398 kts 268°
2026-05-08 02:03 41.29060 -83.63999 29982 ft 398 kts 268°
2026-05-08 02:03 41.28675 -83.71341 29992 ft 398 kts 268°
2026-05-08 02:04 41.28286 -83.78680 29990 ft 397 kts 268°
2026-05-08 02:04 41.27892 -83.86014 29995 ft 397 kts 268°
2026-05-08 02:05 41.27495 -83.93337 30003 ft 397 kts 268°
2026-05-08 02:05 41.27092 -84.00661 29990 ft 397 kts 268°
2026-05-08 02:06 41.26685 -84.07971 29999 ft 396 kts 268°
2026-05-08 02:06 41.26275 -84.15269 29983 ft 396 kts 268°
2026-05-08 02:07 41.25860 -84.22565 29990 ft 396 kts 268°
2026-05-08 02:07 41.25441 -84.29856 29985 ft 396 kts 268°
2026-05-08 02:08 41.25017 -84.37150 29980 ft 396 kts 268°
2026-05-08 02:08 41.24588 -84.44441 29975 ft 396 kts 268°
2026-05-08 02:09 41.24155 -84.51730 29979 ft 396 kts 268°
2026-05-08 02:09 41.23721 -84.58974 29981 ft 396 kts 268°
2026-05-08 02:10 41.23529 -84.66267 29988 ft 394 kts 273°
2026-05-08 02:10 41.23763 -84.73537 29992 ft 394 kts 274°
2026-05-08 02:11 41.24000 -84.80813 29979 ft 394 kts 274°
2026-05-08 02:11 41.24232 -84.88088 29978 ft 394 kts 274°
2026-05-08 02:12 41.24458 -84.95374 29973 ft 395 kts 274°
2026-05-08 02:12 41.24681 -85.02659 29967 ft 395 kts 274°
2026-05-08 02:13 41.24899 -85.09959 29969 ft 395 kts 274°
2026-05-08 02:13 41.25113 -85.17259 29971 ft 395 kts 274°
2026-05-08 02:14 41.25322 -85.24569 29980 ft 396 kts 274°
2026-05-08 02:14 41.25527 -85.31875 29980 ft 396 kts 274°
2026-05-08 02:15 41.25728 -85.39193 29982 ft 396 kts 274°
2026-05-08 02:15 41.25924 -85.46523 29981 ft 397 kts 274°
2026-05-08 02:16 41.26115 -85.53852 29989 ft 397 kts 274°
2026-05-08 02:16 41.26302 -85.61187 29994 ft 397 kts 274°
2026-05-08 02:17 41.26485 -85.68532 29988 ft 398 kts 274°
2026-05-08 02:17 41.26662 -85.75842 30000 ft 398 kts 274°
2026-05-08 02:18 41.26836 -85.83190 29997 ft 398 kts 274°
2026-05-08 02:18 41.27288 -85.90513 29998 ft 397 kts 278°
2026-05-08 02:19 41.27888 -85.97825 30000 ft 398 kts 278°
2026-05-08 02:19 41.28481 -86.05112 30330 ft 390 kts 279°
2026-05-08 02:20 41.28869 -86.08661 30544 ft 388 kts 280°
2026-05-08 02:20 41.29312 -86.12215 30523 ft 391 kts 281°
2026-05-08 02:20 41.30253 -86.19354 30437 ft 396 kts 281°
2026-05-08 02:21 41.31172 -86.26515 30580 ft 395 kts 279°
2026-05-08 02:21 41.31548 -86.30116 30836 ft 389 kts 279°
2026-05-08 02:21 41.31923 -86.33658 31166 ft 385 kts 279°
2026-05-08 02:22 41.32310 -86.37183 31375 ft 384 kts 279°
2026-05-08 02:22 41.32707 -86.40697 31507 ft 385 kts 279°
2026-05-08 02:22 41.33520 -86.47800 31452 ft 391 kts 279°
2026-05-08 02:23 41.34781 -86.54816 31390 ft 395 kts 288°
2026-05-08 02:23 41.36813 -86.60961 37072 ft 0 kts 295°
2026-05-08 02:24 41.37871 -86.63928 37455 ft 377 kts 292°
2026-05-08 02:24 41.38972 -86.67018 38294 ft 361 kts 292°
2026-05-08 02:24 41.39766 -86.69439 37312 ft 374 kts 290°
2026-05-08 02:24 41.40456 -86.71868 20969 ft 406 kts 290°